Temperature
11 12 12 12 12 13 13 13 13 14 14 14 14 14 14 14 14 14 14 14 14 14 15 15 15 15 15 15 15 15 15 15 15 15 15 15 15 15 15 15 15 15 15
11 12 12 12 12 12 13 13 13 13 13 13 14 14 14 14 14 14 14 14 14 14 14 14 14 14 14 15 14 15 15 15 15 15 15 15 15 15 15 15 15 15 15
11 11 11 11 11 12 12 13 13 13 13 13 13 13 13 13 14 14 14 14 14 14 14 14 14 14 14 14 14 14 14 14 14 14 14 14 14 14 14 14 14 14 14
11 11 11 11 11 12 12 12 12 13 13 13 13 13 13 13 13 13 13 13 14 14 14 14 14 14 14 14 14 14 14 14 14 14 14 14 14 14 14 14 14 14 14
10 11 11 11 11 11 12 12 12 12 12 13 13 13 13 13 13 13 13 13 13 13 14 14 14 14 14 14 14 14 14 14 14 14 14 14 14 14 14 14 14 14 14
10 10 11 11 11 11 11 11 12 12 12 12 13 12 12 12 13 13 13 13 13 13 13 13 14 14 14 14 14 14 14 14 14 14 14 14 14 14 14 14 14 14 14
10 10 10 11 11 11 11 11 11 12 12 12 12 12 12 12 12 13 13 13 13 13 13 13 13 13 14 14 13 13 13 13 13 13 14 14 14 14 14 14 14 14 14
9 10 10 10 10 10 11 11 11 11 12 12 12 12 12 12 12 12 12 12 12 12 12 13 13 13 13 13 13 13 13 13 13 13 13 13 13 14 14 14 13 13 14
9 9 9 10 10 10 10 10 11 11 11 11 11 12 12 12 12 12 12 12 12 12 12 12 13 13 13 13 13 13 13 13 13 13 13 13 13 13 13 13 13 13 13
9 9 9 9 9 9 10 10 10 10 10 11 11 11 11 11 11 11 12 12 12 12 12 12 12 12 12 12 12 12 12 12 12 13 13 13 13 13 13 13 13 13 13
8 8 8 8 9 9 9 9 9 10 10 10 10 10 11 11 11 11 11 11 11 11 11 11 12 12 12 12 12 12 12 12 12 12 12 12 13 13 12 12 13 13 13
8 8 8 8 8 8 9 9 9 9 9 10 10 10 10 10 10 10 11 11 11 11 11 11 11 11 11 11 11 12 12 12 12 12 12 12 12 12 12 12 12 12 12
6 7 7 7 7 8 8 8 8 9 9 9 9 9 9 9 10 10 10 10 10 10 11 11 11 11 11 11 11 11 11 11 11 11 12 12 12 12 12 12 12 12 12
6 6 6 6 7 7 7 8 8 8 8 8 8 9 9 9 9 9 10 10 10 10 10 10 10 10 10 10 10 10 11 11 11 11 11 11 11 11 11 12 12 12 12
5 5 6 6 6 7 7 7 7 7 7 7 8 8 8 8 8 9 9 9 9 9 10 10 10 10 10 10 10 10 10 10 10 10 10 11 11 11 11 11 11 11 11
5 5 5 5 6 6 6 6 6 6 7 7 7 7 7 8 8 8 8 8 9 9 9 9 9 9 9 9 9 10 10 10 10 10 10 10 10 10 11 11 11 11 11
4 4 5 5 5 5 5 6 6 6 6 6 6 6 6 7 7 7 7 8 8 8 8 8 8 9 9 9 9 9 9 9 9 10 10 10 10 10 10 10 10 10 10
4 4 4 4 4 4 4 5 5 5 5 5 5 6 6 6 6 7 7 7 7 7 8 8 8 8 8 8 8 9 9 9 9 9 9 9 10 10 10 10 10 10 10
3 3 3 3 4 4 4 4 4 4 5 5 5 5 5 5 5 6 6 6 6 6 7 7 7 7 8 8 8 8 8 8 8 8 9 9 9 9 9 9 9 9 9
3 3 3 3 3 3 3 3 3 4 4 4 4 4 5 5 5 5 5 5 5 6 6 6 6 6 7 7 7 7 8 8 8 8 8 8 8 8 8 9 9 9 9
2 2 2 3 3 3 3 3 3 3 3 4 4 4 4 4 4 4 4 5 5 5 5 5 5 6 6 6 6 7 7 7 7 7 7 7 8 8 8 8 8 8 8
2 2 2 2 2 2 2 2 2 2 2 3 3 3 3 3 3 3 3 4 4 4 4 4 5 5 5 5 4 4 5 6 6 7 7 7 7 7 7 7 7 8 8
1 1 1 1 1 1 1 1 1 1 2 2 2 2 2 2 2 2 3 3 3 3 3 4 4 4 4 4 3 3 3 3 4 5 6 6 6 6 6 6 7 7 7
1 1 1 1 1 1 1 1 1 1 1 1 1 1 1 1 2 2 2 2 2 2 3 3 3 3 3 3 3 3 2 2 2 3 4 5 5 5 6 6 6 6 6
0 0 0 0 0 0 0 0 -0 -0 -0 -0 -0 0 1 1 1 1 1 1 1 2 2 2 2 2 2 2 2 2 2 2 2 2 2 4 4 5 5 5 5 5 5
-0 -0 -0 -0 -0 -0 -0 -1 -1 -1 -1 -1 -1 -1 -0 -0 0 0 0 0 0 1 1 1 1 1 1 1 1 1 1 1 1 1 1 2 3 4 4 4 4 4 5
Wind_Speed
6 12 12 11 11 12 12 12 13 13 13 12 13 13 13 12 11 11 11 11 11 11 12 12 12 12 13 13 13 13 13 13 13 13 12 12 12 12 12 12 12 12 13
7 10 10 10 10 11 12 13 14 14 14 13 13 13 13 12 12 11 11 11 11 11 11 11 11 12 12 13 13 12 13 12 12 12 12 11 11 11 11 11 11 10 12
8 9 9 10 10 11 12 13 14 14 14 14 13 12 12 12 12 12 11 11 11 11 11 11 12 11 12 12 12 12 12 11 11 11 11 10 9 9 10 10 10 11 11
8 10 10 11 11 11 12 13 14 14 14 14 14 13 13 12 12 12 11 11 11 11 11 11 11 11 12 11 11 11 11 10 10 10 9 8 7 8 9 9 9 9 10
10 11 10 12 12 12 12 13 13 14 14 14 14 14 13 13 12 11 12 11 11 11 11 11 11 11 11 11 11 10 10 10 10 9 8 8 7 8 8 8 8 8 8
10 12 11 12 13 14 13 13 13 14 14 14 14 14 14 13 12 12 12 12 11 11 11 11 10 10 11 11 11 10 10 11 10 9 8 7 6 7 7 8 7 7 7
10 12 12 13 13 14 14 14 14 14 14 14 13 13 14 13 13 12 12 13 12 11 11 11 11 10 10 10 10 10 10 11 10 9 8 7 6 5 6 6 7 6 6
10 12 13 13 14 14 14 15 15 15 15 14 14 13 14 14 14 13 12 12 12 12 10 10 10 10 9 9 9 9 10 10 9 8 7 6 5 5 5 5 5 6 6
12 13 14 14 13 13 14 15 15 15 15 15 14 14 13 13 14 14 13 12 12 11 11 10 10 10 10 9 9 8 9 9 8 7 6 5 5 4 4 4 4 4 5
12 13 14 15 15 14 13 14 15 15 15 14 14 14 14 13 13 13 14 12 11 11 11 10 9 9 10 9 8 8 8 8 7 6 6 5 5 3 3 3 3 3 4
10 11 13 14 14 14 13 12 13 14 14 14 14 14 13 13 12 12 13 13 11 11 11 10 10 10 9 9 9 8 8 7 7 6 5 5 4 3 2 2 3 3 3
9 9 11 12 13 13 12 12 12 12 13 14 13 13 12 12 12 12 12 13 12 11 10 10 10 10 9 8 8 8 7 6 6 5 5 7 5 3 2 3 2 2 2
6 7 9 11 12 12 11 11 11 11 12 13 14 13 12 12 12 12 11 12 12 11 10 10 9 9 8 7 7 7 6 5 5 4 5 7 5 4 3 3 2 2 2
6 7 8 10 11 11 11 10 10 10 11 11 12 13 11 10 10 10 10 11 10 9 9 8 8 8 8 7 6 6 6 5 4 4 5 6 5 4 3 2 1 1 1
6 7 7 9 10 10 10 10 10 10 10 11 11 12 11 9 8 9 9 10 10 9 8 8 7 7 7 7 6 6 6 5 5 4 4 6 6 5 4 3 2 1 0
6 6 6 8 9 10 9 9 9 9 9 10 11 11 11 10 9 8 8 9 10 10 8 7 6 5 5 5 5 6 5 5 4 4 4 4 5 5 5 3 2 2 1
4 5 6 7 9 9 9 9 9 9 9 9 10 11 11 10 9 8 7 8 9 10 8 7 7 5 4 4 4 5 5 5 4 4 4 4 4 4 5 4 3 2 2
4 5 6 6 7 8 8 8 8 9 9 10 10 10 10 10 9 8 7 7 9 9 8 5 4 3 3 3 3 3 4 4 4 3 3 3 3 3 4 5 4 3 3
3 4 5 6 6 7 7 7 8 8 9 10 10 10 10 10 9 8 7 8 9 8 7 5 3 2 3 4 3 3 2 2 3 2 2 3 3 3 4 4 5 4 4
4 4 4 5 6 6 6 6 6 7 8 10 10 10 11 10 10 8 7 8 8 6 5 4 3 3 2 3 3 3 3 3 2 1 1 2 3 3 4 4 4 4 4
4 4 5 5 5 5 4 4 4 4 5 6 9 11 11 11 10 9 7 7 7 4 4 5 3 3 3 3 2 3 2 2 1 1 1 1 2 4 5 5 5 4 4
3 3 4 4 4 5 4 3 2 2 3 4 7 10 11 11 10 9 8 6 6 4 5 5 4 2 2 2 2 1 2 2 1 2 1 1 1 3 4 6 5 4 5
2 3 3 4 4 5 5 4 3 3 3 3 5 6 10 11 10 9 8 6 6 4 3 4 3 3 2 2 1 0 1 2 3 2 2 2 1 2 3 5 5 6 6
1 2 3 3 4 5 5 4 4 3 3 4 4 5 8 10 10 9 8 8 6 4 4 4 4 3 2 2 2 2 2 2 2 3 2 2 2 3 3 4 5 6 6
0 1 2 3 3 4 4 3 3 3 3 3 4 5 6 8 9 9 8 7 6 5 5 5 4 3 2 3 3 2 2 2 3 3 4 4 4 3 3 4 4 5 6
0 1 2 2 3 3 3 3 2 3 4 5 5 5 5 5 6 8 8 8 7 6 6 6 5 4 3 4 3 3 3 3 3 3 4 5 6 5 4 3 3 4 6
Wind_Direction
334 339 350 4 22 30 34 38 44 44 45 50 50 50 50 52 59 63 63 63 63 64 66 66 65 67 67 67 67 67 68 68 68 69 72 73 76 79 82 82 81 79 82
330 344 355 11 26 35 37 39 41 42 43 45 49 49 48 50 55 60 62 59 58 61 66 67 67 67 67 67 67 68 69 68 66 64 65 68 71 75 80 83 84 86 85
352 359 3 19 32 39 41 41 41 42 43 43 46 47 47 47 51 57 59 56 56 58 62 68 67 66 66 68 67 67 67 67 65 61 60 61 67 76 81 84 86 88 87
4 9 12 30 35 40 43 42 42 41 42 42 43 44 45 45 51 56 55 54 54 56 63 67 68 66 65 67 67 66 65 63 61 59 56 55 60 76 82 83 86 88 89
15 16 20 36 39 41 42 43 42 40 40 41 42 41 42 42 46 51 50 50 51 53 59 65 66 65 65 65 64 65 65 61 59 57 53 50 55 71 77 80 82 86 91
19 20 26 39 41 41 42 42 42 41 40 40 40 39 39 39 43 47 47 45 47 51 53 55 60 62 64 62 61 62 62 60 60 56 51 48 54 67 75 80 81 85 92
21 23 26 39 41 41 41 41 40 40 39 39 38 38 37 37 38 43 45 43 43 47 50 51 52 58 60 60 58 58 56 56 57 53 47 42 45 62 76 79 81 82 91
28 27 27 30 39 41 40 40 39 38 38 37 38 37 37 36 35 36 41 40 39 40 44 49 49 51 56 58 57 55 53 53 50 44 39 33 35 52 69 76 80 82 87
35 31 26 26 30 37 40 39 37 35 35 36 36 36 36 36 35 35 34 35 36 36 40 44 49 49 50 54 53 53 53 50 47 39 31 27 30 44 61 73 76 86 92
34 30 25 24 26 29 33 36 34 32 32 33 34 34 35 35 33 33 30 27 31 33 36 39 46 47 44 45 47 49 50 45 38 33 26 19 17 28 48 67 73 91 95
27 24 22 23 23 25 29 31 32 30 29 28 28 30 32 31 29 29 26 24 25 30 33 36 42 42 42 38 37 42 45 38 31 23 19 12 10 13 41 80 83 84 93
17 14 17 19 20 23 27 28 29 29 27 27 27 27 28 30 28 27 26 25 23 26 29 32 38 39 36 30 29 32 32 29 28 15 9 8 7 15 54 78 91 87 86
16 14 12 15 21 26 25 27 27 27 26 25 24 26 26 29 27 24 23 20 18 22 25 23 30 27 25 24 21 19 19 23 18 5 2 4 4 15 38 58 70 82 97
25 17 12 15 22 24 27 28 28 26 25 23 21 26 28 27 23 19 21 16 16 15 16 19 19 16 16 17 20 18 14 12 6 357 354 4 6 6 4 12 34 48 88
27 16 11 17 22 22 26 26 26 25 25 22 22 25 27 27 20 17 17 16 12 12 12 10 11 11 9 7 8 9 6 3 3 359 352 358 0 355 348 332 327 300 286
23 14 11 22 24 26 26 24 22 22 24 26 24 22 25 27 22 17 16 14 10 6 5 7 7 5 2 360 356 355 352 350 353 357 354 352 351 354 343 335 321 317 308
20 16 17 28 25 26 25 22 19 19 24 26 21 22 24 25 23 20 16 12 4 1 4 10 11 12 13 4 350 345 345 342 343 348 353 358 352 350 345 330 309 313 310
26 23 18 26 26 25 24 20 20 21 25 25 20 20 21 21 21 22 16 8 3 4 7 9 6 9 5 357 340 328 335 336 334 338 351 360 360 352 344 340 321 311 319
29 27 27 24 24 21 20 23 24 26 27 22 21 19 17 18 20 20 13 6 5 6 5 8 4 6 354 346 327 319 318 315 315 328 345 352 355 347 339 336 339 331 321
32 32 33 26 21 16 18 21 23 24 22 21 19 18 17 16 16 18 14 7 7 6 1 0 0 357 345 334 319 315 301 291 299 318 332 350 356 356 357 349 342 336 332
28 28 26 24 13 12 8 4 2 1 358 7 12 14 14 13 13 14 12 8 6 3 351 348 344 346 349 347 343 330 314 298 292 300 332 338 1 0 2 353 343 337 326
22 20 20 17 9 5 1 348 338 330 342 352 2 8 11 11 10 9 8 5 360 356 353 354 354 345 335 4 353 326 322 323 321 301 283 277 322 356 351 338 328 332 329
19 9 12 5 6 4 4 5 3 358 344 352 352 355 360 3 4 4 359 359 357 357 344 338 345 346 315 307 344 352 301 283 311 277 268 271 299 319 323 322 322 320 314
350 6 10 7 7 5 10 21 16 2 344 334 331 335 344 354 356 358 354 354 350 346 332 323 344 319 296 288 290 298 270 262 273 291 276 263 288 295 292 312 308 305 301
87 7 356 4 360 359 6 13 17 1 337 326 329 336 342 343 350 350 349 348 344 337 327 319 319 306 285 272 279 286 294 292 256 254 277 285 291 269 277 289 291 289 292
8 7 360 0 349 350 354 357 3 347 335 334 335 337 337 334 335 341 342 343 337 329 320 313 303 290 277 275 279 267 257 256 263 263 267 278 283 278 278 269 268 276 285
Height
1550 1550 1550 1549 1549 1549 1548 1548 1548 1547 1547 1547 1546 1546 1545 1545 1545 1545 1545 1545 1545 1545 1545 1545 1545 1545 1545 1545 1545 1545 1545 1546 1546 1546 1546 1547 1547 1548 1548 1548 1548 1548 1549
1550 1550 1550 1550 1550 1549 1549 1548 1548 1548 1547 1547 1547 1547 1546 1546 1546 1546 1546 1546 1546 1546 1546 1546 1546 1546 1546 1546 1546 1546 1547 1547 1547 1547 1548 1548 1548 1549 1549 1549 1550 1550 1550
1550 1550 1550 1550 1550 1550 1549 1549 1549 1548 1548 1548 1547 1547 1547 1546 1546 1546 1546 1546 1546 1546 1546 1546 1546 1547 1547 1547 1547 1547 1547 1548 1548 1548 1549 1549 1549 1550 1550 1550 1551 1551 1551
1550 1550 1550 1550 1550 1550 1549 1549 1549 1549 1548 1548 1548 1548 1547 1547 1547 1547 1547 1547 1547 1547 1547 1547 1547 1547 1547 1548 1548 1548 1548 1548 1549 1549 1550 1550 1550 1551 1551 1551 1552 1552 1552
1550 1550 1550 1550 1550 1550 1549 1549 1549 1549 1548 1548 1548 1548 1548 1548 1547 1547 1547 1547 1547 1547 1547 1547 1548 1548 1548 1548 1548 1548 1549 1549 1549 1550 1550 1550 1551 1551 1552 1552 1552 1553 1553
1551 1550 1550 1550 1550 1550 1549 1549 1549 1548 1548 1548 1548 1548 1547 1547 1547 1547 1547 1547 1547 1547 1547 1548 1548 1548 1548 1548 1548 1549 1549 1549 1550 1550 1550 1551 1551 1552 1552 1552 1553 1553 1553
1550 1550 1550 1550 1550 1549 1549 1549 1549 1548 1548 1548 1548 1548 1547 1547 1547 1547 1547 1547 1547 1547 1547 1548 1548 1548 1548 1548 1548 1549 1549 1550 1550 1550 1551 1551 1551 1552 1552 1552 1553 1553 1553
1550 1550 1550 1550 1550 1549 1549 1549 1548 1548 1547 1547 1547 1547 1547 1547 1547 1547 1547 1547 1547 1547 1547 1547 1547 1548 1548 1548 1548 1549 1549 1549 1550 1550 1550 1551 1551 1551 1552 1552 1552 1553 1553
1550 1550 1550 1550 1549 1549 1549 1548 1548 1547 1547 1547 1547 1547 1547 1547 1546 1546 1546 1547 1547 1547 1547 1547 1547 1547 1547 1547 1548 1548 1549 1549 1549 1550 1550 1551 1551 1551 1551 1552 1552 1552 1553
1550 1549 1549 1549 1549 1548 1548 1548 1547 1547 1546 1546 1546 1546 1546 1546 1546 1546 1546 1546 1546 1546 1546 1546 1546 1546 1547 1547 1547 1548 1548 1549 1549 1549 1550 1550 1550 1550 1550 1551 1551 1552 1552
1549 1549 1549 1549 1548 1548 1547 1547 1546 1546 1546 1545 1545 1545 1545 1545 1545 1545 1545 1545 1545 1545 1545 1545 1545 1545 1546 1546 1546 1547 1547 1548 1548 1549 1549 1549 1549 1549 1550 1550 1550 1551 1551
1548 1548 1548 1548 1547 1547 1547 1546 1546 1545 1545 1544 1544 1543 1543 1543 1543 1544 1544 1544 1544 1544 1544 1544 1544 1544 1545 1545 1545 1545 1546 1546 1547 1547 1548 1548 1548 1548 1548 1549 1549 1550 1550
1548 1548 1547 1547 1546 1546 1545 1545 1545 1544 1544 1543 1543 1543 1542 1542 1542 1542 1542 1542 1542 1543 1543 1543 1543 1543 1543 1543 1544 1544 1545 1545 1545 1546 1546 1547 1547 1547 1547 1547 1548 1548 1549
1547 1547 1547 1546 1546 1545 1544 1544 1544 1543 1543 1542 1542 1542 1541 1541 1541 1540 1540 1541 1541 1541 1541 1541 1541 1542 1542 1542 1542 1543 1543 1543 1544 1544 1545 1545 1545 1545 1546 1546 1546 1547 1547
1547 1546 1546 1545 1545 1544 1543 1543 1542 1542 1542 1541 1541 1540 1540 1539 1539 1539 1539 1539 1539 1539 1539 1539 1540 1540 1540 1540 1541 1541 1541 1542 1542 1542 1543 1543 1543 1544 1544 1544 1544 1545 1546
1546 1545 1545 1545 1544 1543 1542 1542 1541 1541 1540 1540 1539 1538 1538 1538 1537 1537 1537 1537 1537 1537 1537 1537 1537 1537 1538 1538 1539 1539 1539 1540 1540 1540 1540 1541 1541 1541 1542 1542 1543 1543 1543
1545 1545 1544 1544 1543 1542 1541 1540 1540 1539 1539 1538 1538 1537 1537 1536 1536 1535 1535 1535 1535 1535 1535 1535 1535 1535 1535 1535 1536 1536 1537 1537 1537 1538 1538 1538 1538 1539 1539 1540 1540 1541 1541
1544 1543 1543 1542 1542 1541 1540 1539 1538 1538 1537 1537 1536 1536 1535 1535 1534 1533 1533 1533 1533 1532 1532 1532 1532 1532 1532 1532 1533 1533 1534 1534 1534 1535 1535 1535 1535 1536 1536 1537 1537 1538 1538
1543 1543 1542 1541 1540 1540 1539 1538 1537 1536 1536 1535 1535 1534 1533 1533 1532 1532 1531 1530 1530 1530 1530 1529 1529 1529 1529 1529 1529 1530 1530 1530 1531 1531 1532 1532 1532 1533 1533 1533 1534 1535 1535
1542 1542 1541 1540 1539 1538 1537 1537 1536 1535 1534 1533 1533 1532 1531 1530 1530 1529 1529 1528 1528 1527 1527 1527 1526 1526 1526 1526 1526 1526 1526 1527 1527 1528 1528 1529 1529 1529 1530 1530 1530 1531 1532
1541 1540 1539 1539 1538 1537 1535 1534 1533 1532 1532 1531 1530 1530 1529 1528 1527 1527 1526 1525 1525 1524 1524 1524 1523 1523 1523 1523 1522 1522 1522 1523 1523 1524 1525 1525 1525 1526 1526 1526 1527 1527 1528
1539 1539 1538 1537 1536 1535 1534 1533 1532 1531 1530 1529 1528 1527 1527 1526 1525 1524 1523 1523 1522 1521 1521 1521 1520 1519 1519 1520 1519 1518 1518 1519 1519 1520 1520 1521 1521 1522 1522 1522 1523 1523 1524
1537 1536 1536 1535 1534 1533 1532 1531 1530 1529 1528 1527 1525 1524 1524 1523 1522 1521 1520 1520 1519 1518 1518 1518 1517 1516 1516 1517 1518 1518 1517 1515 1514 1514 1515 1516 1517 1517 1518 1518 1518 1519 1519
1535 1535 1534 1534 1533 1532 1531 1529 1528 1526 1525 1524 1523 1521 1520 1520 1519 1518 1517 1516 1516 1515 1515 1514 1514 1514 1513 1513 1514 1515 1516 1514 1513 1510 1510 1511 1512 1512 1513 1513 1514 1514 1515
1533 1533 1533 1532 1531 1530 1529 1527 1526 1524 1523 1522 1520 1519 1517 1516 1515 1514 1514 1513 1512 1512 1511 1511 1510 1510 1510 1510 1510 1510 1511 1511 1510 1508 1505 1505 1506 1507 1508 1508 1509 1510 1510
1531 1531 1530 1529 1528 1527 1526 1525 1523 1522 1520 1519 1517 1516 1514 1513 1512 1511 1510 1509 1508 1508 1507 1507 1506 1506 1506 1506 1506 1506 1506 1506 1505 1505 1502 1500 1499 1500 1502 1503 1504 1505 1505